Location: Demmingen
(48.6757°N, 10.4375°E)
Time: 03:11:42
(UTC+00:00)

Cosmos 1892 - Pass Details

Date: 23 May 2024
Orbit: 455 x 468 km, 82.5° (Epoch: 19 June)

Event Time Altitude Azimuth Distance (km) Brightness Sun altitude
Exits shadow 02:42:04 - 193° (SSW) 2,071 5.3 -6.8°
Reaches altitude 10° 02:43:11 10° 194° (SSW) 1,601 4.7 -6.6°
Maximum altitude 02:46:40 75° 280° (W) 481 2.4 -6.2°
Drops below altitude 10° 02:50:10 10° 6° (N) 1,609 6.0 -5.7°
Sets 02:52:16 0° 9° (N) 2,488 7.0 -5.5°
